Data supplied by UK-AIR on 20/3/2021
All Data GMT hour ending 
Status: R =Ratified P=Provisional,P*=As supplied
,,Aberdeen Union Street Roadside,,,,,,,,,,,,,,,,,,,,,,,
Date,time,"Nitric oxide",status,unit,"Nitrogen dioxide",status,unit,"Nitrogen oxides as nitrogen dioxide",status,unit
 
01-01-2020,01:00,7.69388,R,ugm-3,21.56423,R,ugm-3,33.36134,R,ugm-3
01-01-2020,02:00,6.73214,R,ugm-3,20.83113,R,ugm-3,31.15360,R,ugm-3
01-01-2020,03:00,8.25489,R,ugm-3,21.68524,R,ugm-3,34.34256,R,ugm-3
01-01-2020,04:00,8.21482,R,ugm-3,23.40248,R,ugm-3,35.99836,R,ugm-3
01-01-2020,05:00,4.16752,R,ugm-3,15.74858,R,ugm-3,22.13868,R,ugm-3
01-01-2020,06:00,1.68304,R,ugm-3,5.45309,R,ugm-3,8.03371,R,ugm-3
01-01-2020,07:00,1.36246,R,ugm-3,6.55789,R,ugm-3,8.64697,R,ugm-3
01-01-2020,08:00,2.20398,R,ugm-3,9.62173,R,ugm-3,13.00111,R,ugm-3
01-01-2020,09:00,10.61915,R,ugm-3,25.41920,R,ugm-3,41.70167,R,ugm-3
01-01-2020,10:00,7.53359,R,ugm-3,29.78238,R,ugm-3,41.33372,R,ugm-3
01-01-2020,11:00,7.33323,R,ugm-3,24.99954,R,ugm-3,36.24366,R,ugm-3
01-01-2020,12:00,7.81409,R,ugm-3,21.13459,R,ugm-3,33.11604,R,ugm-3
01-01-2020,13:00,26.48777,R,ugm-3,42.36005,R,ugm-3,82.97407,R,ugm-3
01-01-2020,14:00,18.87404,R,ugm-3,37.66024,R,ugm-3,66.60003,R,ugm-3
01-01-2020,15:00,17.67187,R,ugm-3,26.68640,R,ugm-3,53.78290,R,ugm-3
01-01-2020,16:00,4.68846,R,ugm-3,14.21391,R,ugm-3,21.40277,R,ugm-3
01-01-2020,17:00,3.76679,R,ugm-3,10.47572,R,ugm-3,16.25139,R,ugm-3
01-01-2020,18:00,3.00542,R,ugm-3,7.71828,R,ugm-3,12.32653,R,ugm-3
01-01-2020,19:00,2.32419,R,ugm-3,7.53629,R,ugm-3,11.10001,R,ugm-3
01-01-2020,20:00,3.00542,R,ugm-3,7.16634,R,ugm-3,11.77459,R,ugm-3
01-01-2020,21:00,2.16390,R,ugm-3,5.88096,R,ugm-3,9.19890,R,ugm-3
01-01-2020,22:00,2.12383,R,ugm-3,5.26782,R,ugm-3,8.52431,R,ugm-3
01-01-2020,23:00,2.36426,R,ugm-3,4.89916,R,ugm-3,8.52431,R,ugm-3
01-01-2020,24:00,1.56282,R,ugm-3,4.41090,R,ugm-3,6.80719,R,ugm-3
02-01-2020,01:00,1.86952,R,ugm-3,4.89687,R,ugm-3,7.76343,R,ugm-3
02-01-2020,02:00,1.81611,R,ugm-3,4.89705,R,ugm-3,7.68171,R,ugm-3
02-01-2020,03:00,1.88288,R,ugm-3,4.89682,R,ugm-3,7.78386,R,ugm-3
02-01-2020,04:00,1.56239,R,ugm-3,4.34630,R,ugm-3,6.74192,R,ugm-3
02-01-2020,05:00,0.64098,R,ugm-3,2.51072,R,ugm-3,3.49354,R,ugm-3
02-01-2020,06:00,1.28196,R,ugm-3,2.81500,R,ugm-3,4.78064,R,ugm-3
02-01-2020,07:00,1.48226,R,ugm-3,3.54980,R,ugm-3,5.82257,R,ugm-3
02-01-2020,08:00,1.72263,R,ugm-3,4.10059,R,ugm-3,6.74192,R,ugm-3
02-01-2020,09:00,5.08777,R,ugm-3,9.91173,R,ugm-3,17.71287,R,ugm-3
02-01-2020,10:00,5.12783,R,ugm-3,11.68901,R,ugm-3,19.55158,R,ugm-3
02-01-2020,11:00,8.33273,R,ugm-3,16.27489,R,ugm-3,29.05157,R,ugm-3
02-01-2020,12:00,8.13242,R,ugm-3,10.94332,R,ugm-3,23.41286,R,ugm-3
02-01-2020,13:00,8.85353,R,ugm-3,13.45377,R,ugm-3,27.02899,R,ugm-3
02-01-2020,14:00,8.49297,R,ugm-3,16.64209,R,ugm-3,29.66447,R,ugm-3
02-01-2020,15:00,5.32814,R,ugm-3,9.42059,R,ugm-3,17.59029,R,ugm-3
02-01-2020,16:00,4.28655,R,ugm-3,8.87252,R,ugm-3,15.44514,R,ugm-3
02-01-2020,17:00,4.96759,R,ugm-3,10.89278,R,ugm-3,18.50965,R,ugm-3
02-01-2020,18:00,6.00918,R,ugm-3,11.86989,R,ugm-3,21.08384,R,ugm-3
02-01-2020,19:00,7.21102,R,ugm-3,12.78516,R,ugm-3,23.84190,R,ugm-3
02-01-2020,20:00,6.81040,R,ugm-3,12.54136,R,ugm-3,22.98383,R,ugm-3
02-01-2020,21:00,8.49297,R,ugm-3,14.86467,R,ugm-3,27.88705,R,ugm-3
02-01-2020,22:00,17.78717,R,ugm-3,18.20406,R,ugm-3,45.47734,R,ugm-3
02-01-2020,23:00,15.50369,R,ugm-3,16.06666,R,ugm-3,39.83864,R,ugm-3
02-01-2020,24:00,21.11225,R,ugm-3,34.06693,R,ugm-3,66.43860,R,ugm-3
03-01-2020,01:00,2.83021,R,ugm-3,10.60649,R,ugm-3,14.94609,R,ugm-3
03-01-2020,02:00,4.16521,R,ugm-3,8.39617,R,ugm-3,14.78274,R,ugm-3
03-01-2020,03:00,3.76471,R,ugm-3,7.33597,R,ugm-3,13.10845,R,ugm-3
03-01-2020,04:00,1.36171,R,ugm-3,3.11871,R,ugm-3,5.20663,R,ugm-3
03-01-2020,05:00,5.00627,R,ugm-3,9.72010,R,ugm-3,17.39626,R,ugm-3
03-01-2020,06:00,8.65083,R,ugm-3,13.74879,R,ugm-3,27.01321,R,ugm-3
03-01-2020,07:00,60.59585,R,ugm-3,43.44006,R,ugm-3,136.35240,R,ugm-3
03-01-2020,08:00,82.10277,R,ugm-3,63.93838,R,ugm-3,189.82754,R,ugm-3
03-01-2020,09:00,77.13655,R,ugm-3,65.12142,R,ugm-3,183.39582,R,ugm-3
03-01-2020,10:00,86.50828,R,ugm-3,69.00546,R,ugm-3,201.64964,R,ugm-3
03-01-2020,11:00,72.33054,R,ugm-3,67.16141,R,ugm-3,178.06668,R,ugm-3
03-01-2020,12:00,74.37309,R,ugm-3,59.68046,R,ugm-3,173.71762,R,ugm-3
03-01-2020,13:00,85.49368,R,ugm-3,77.09497,R,ugm-3,208.18345,R,ugm-3
03-01-2020,14:00,87.14908,R,ugm-3,63.00005,R,ugm-3,196.62678,R,ugm-3
03-01-2020,15:00,76.17535,R,ugm-3,68.61664,R,ugm-3,185.41722,R,ugm-3
03-01-2020,16:00,73.73229,R,ugm-3,83.08214,R,ugm-3,196.13674,R,ugm-3
03-01-2020,17:00,82.34307,R,ugm-3,66.57139,R,ugm-3,192.82900,R,ugm-3
03-01-2020,18:00,37.24662,R,ugm-3,54.37241,R,ugm-3,111.48310,R,ugm-3
03-01-2020,19:00,56.79109,R,ugm-3,55.21564,R,ugm-3,142.29408,R,ugm-3
03-01-2020,20:00,45.41685,R,ugm-3,53.91203,R,ugm-3,123.55022,R,ugm-3
03-01-2020,21:00,38.36803,R,ugm-3,53.44925,R,ugm-3,112.27940,R,ugm-3
03-01-2020,22:00,30.31795,R,ugm-3,49.92763,R,ugm-3,96.41450,R,ugm-3
03-01-2020,23:00,38.52823,R,ugm-3,45.91434,R,ugm-3,104.99012,R,ugm-3
03-01-2020,24:00,40.93123,R,ugm-3,47.92644,R,ugm-3,110.68679,R,ugm-3
04-01-2020,01:00,24.19395,R,ugm-3,35.75547,R,ugm-3,72.85235,R,ugm-3
04-01-2020,02:00,19.75126,R,ugm-3,45.18692,R,ugm-3,75.47176,R,ugm-3
04-01-2020,03:00,20.39358,R,ugm-3,43.87462,R,ugm-3,75.14433,R,ugm-3
04-01-2020,04:00,16.05793,R,ugm-3,39.28770,R,ugm-3,63.90952,R,ugm-3
04-01-2020,05:00,5.33926,R,ugm-3,18.82591,R,ugm-3,27.01267,R,ugm-3
04-01-2020,06:00,6.46332,R,ugm-3,19.80365,R,ugm-3,29.71394,R,ugm-3
04-01-2020,07:00,15.81707,R,ugm-3,22.09879,R,ugm-3,46.35128,R,ugm-3
04-01-2020,08:00,53.15176,R,ugm-3,51.96891,R,ugm-3,133.46714,R,ugm-3
04-01-2020,09:00,79.16561,R,ugm-3,61.74803,R,ugm-3,183.13361,R,ugm-3
04-01-2020,10:00,125.13145,R,ugm-3,86.36494,R,ugm-3,278.23048,R,ugm-3
04-01-2020,11:00,132.19694,R,ugm-3,80.93387,R,ugm-3,283.63302,R,ugm-3
04-01-2020,12:00,148.21473,R,ugm-3,78.59766,R,ugm-3,305.85708,R,ugm-3
04-01-2020,13:00,73.78620,R,ugm-3,76.68812,R,ugm-3,189.82539,R,ugm-3
04-01-2020,14:00,28.62327,R,ugm-3,50.96290,R,ugm-3,94.85130,R,ugm-3
04-01-2020,15:00,22.76212,R,ugm-3,34.84037,R,ugm-3,69.74180,R,ugm-3
04-01-2020,16:00,23.12342,R,ugm-3,37.96992,R,ugm-3,73.42535,R,ugm-3
04-01-2020,17:00,25.45183,R,ugm-3,41.70546,R,ugm-3,80.73104,R,ugm-3
04-01-2020,18:00,41.18860,R,ugm-3,54.10457,R,ugm-3,117.25954,R,ugm-3
04-01-2020,19:00,28.74370,R,ugm-3,32.85165,R,ugm-3,76.92471,R,ugm-3
04-01-2020,20:00,27.17805,R,ugm-3,36.23456,R,ugm-3,77.90699,R,ugm-3
04-01-2020,21:00,9.95592,R,ugm-3,20.52626,R,ugm-3,35.79179,R,ugm-3
04-01-2020,22:00,8.95230,R,ugm-3,16.66259,R,ugm-3,30.38925,R,ugm-3
04-01-2020,23:00,6.78448,R,ugm-3,14.70678,R,ugm-3,25.10950,R,ugm-3
04-01-2020,24:00,9.99606,R,ugm-3,18.25457,R,ugm-3,33.58166,R,ugm-3
05-01-2020,01:00,10.67689,R,ugm-3,12.83543,R,ugm-3,29.20643,R,ugm-3
05-01-2020,02:00,5.15066,R,ugm-3,10.39747,R,ugm-3,18.29504,R,ugm-3
05-01-2020,03:00,4.82875,R,ugm-3,9.76301,R,ugm-3,17.16698,R,ugm-3
05-01-2020,04:00,2.49485,R,ugm-3,5.46571,R,ugm-3,9.29109,R,ugm-3
05-01-2020,05:00,1.04623,R,ugm-3,4.30273,R,ugm-3,5.90692,R,ugm-3
05-01-2020,06:00,2.65581,R,ugm-3,14.14082,R,ugm-3,18.21300,R,ugm-3
05-01-2020,07:00,4.10443,R,ugm-3,28.53283,R,ugm-3,34.82621,R,ugm-3
05-01-2020,08:00,4.14467,R,ugm-3,20.28759,R,ugm-3,26.64267,R,ugm-3
05-01-2020,09:00,8.49054,R,ugm-3,23.65347,R,ugm-3,36.67212,R,ugm-3
05-01-2020,10:00,27.68480,R,ugm-3,39.57060,R,ugm-3,82.02003,R,ugm-3
05-01-2020,11:00,52.67355,R,ugm-3,45.92612,R,ugm-3,126.69111,R,ugm-3
05-01-2020,12:00,66.47571,R,ugm-3,61.00451,R,ugm-3,162.93252,R,ugm-3
05-01-2020,13:00,95.28722,R,ugm-3,71.77413,R,ugm-3,217.87917,R,ugm-3
05-01-2020,14:00,106.91645,R,ugm-3,71.10989,R,ugm-3,235.04616,R,ugm-3
05-01-2020,15:00,53.80026,R,ugm-3,65.36499,R,ugm-3,147.85757,R,ugm-3
05-01-2020,16:00,80.39859,R,ugm-3,73.12893,R,ugm-3,196.40506,R,ugm-3
05-01-2020,17:00,40.48097,R,ugm-3,45.85437,R,ugm-3,107.92434,R,ugm-3
05-01-2020,18:00,30.98444,R,ugm-3,37.64927,R,ugm-3,85.15808,R,ugm-3
05-01-2020,19:00,37.54349,R,ugm-3,42.11338,R,ugm-3,99.67926,R,ugm-3
05-01-2020,20:00,116.13130,R,ugm-3,68.11764,R,ugm-3,246.18316,R,ugm-3
05-01-2020,21:00,16.05558,R,ugm-3,25.59061,R,ugm-3,50.20881,R,ugm-3
05-01-2020,22:00,15.33126,R,ugm-3,20.97887,R,ugm-3,44.48649,R,ugm-3
05-01-2020,23:00,32.39283,R,ugm-3,31.12112,R,ugm-3,80.78943,R,ugm-3
05-01-2020,24:00,5.63354,R,ugm-3,9.88269,R,ugm-3,18.52065,R,ugm-3
06-01-2020,01:00,2.95785,R,ugm-3,4.83830,R,ugm-3,9.37360,R,ugm-3
06-01-2020,02:00,0.91424,R,ugm-3,2.54496,R,ugm-3,3.94678,R,ugm-3
06-01-2020,03:00,0.84702,R,ugm-3,2.40136,R,ugm-3,3.70010,R,ugm-3
06-01-2020,04:00,0.68568,R,ugm-3,1.60038,R,ugm-3,2.65174,R,ugm-3
06-01-2020,05:00,0.68568,R,ugm-3,1.84705,R,ugm-3,2.89842,R,ugm-3
06-01-2020,06:00,3.75108,R,ugm-3,5.90374,R,ugm-3,11.65533,R,ugm-3
06-01-2020,07:00,8.67186,R,ugm-3,9.45897,R,ugm-3,22.75564,R,ugm-3
06-01-2020,08:00,12.50362,R,ugm-3,16.90407,R,ugm-3,36.07601,R,ugm-3
06-01-2020,09:00,10.20456,R,ugm-3,12.90569,R,ugm-3,28.55246,R,ugm-3
06-01-2020,10:00,9.68022,R,ugm-3,12.66131,R,ugm-3,27.50410,R,ugm-3
06-01-2020,11:00,10.89025,R,ugm-3,13.88938,R,ugm-3,30.58752,R,ugm-3
06-01-2020,12:00,13.63297,R,ugm-3,18.37916,R,ugm-3,39.28276,R,ugm-3
06-01-2020,13:00,12.10027,R,ugm-3,26.52610,R,ugm-3,45.07959,R,ugm-3
06-01-2020,14:00,10.93058,R,ugm-3,20.17938,R,ugm-3,36.93936,R,ugm-3
06-01-2020,15:00,21.78049,R,ugm-3,26.36038,R,ugm-3,59.75667,R,ugm-3
06-01-2020,16:00,37.38984,R,ugm-3,38.87239,R,ugm-3,96.20268,R,ugm-3
06-01-2020,17:00,150.80972,R,ugm-3,77.72027,R,ugm-3,308.95862,R,ugm-3
06-01-2020,18:00,132.82065,R,ugm-3,80.82078,R,ugm-3,284.47627,R,ugm-3
06-01-2020,19:00,129.27124,R,ugm-3,80.52797,R,ugm-3,278.74111,R,ugm-3
06-01-2020,20:00,90.87304,R,ugm-3,76.44096,R,ugm-3,215.77768,R,ugm-3
06-01-2020,21:00,52.11184,R,ugm-3,45.96147,R,ugm-3,125.86518,R,ugm-3
06-01-2020,22:00,29.96834,R,ugm-3,42.11164,R,ugm-3,88.06246,R,ugm-3
06-01-2020,23:00,29.68600,R,ugm-3,38.22777,R,ugm-3,83.74567,R,ugm-3
06-01-2020,24:00,17.06138,R,ugm-3,28.78611,R,ugm-3,54.94653,R,ugm-3
07-01-2020,01:00,4.52804,R,ugm-3,10.93974,R,ugm-3,17.88264,R,ugm-3
07-01-2020,02:00,2.10231,R,ugm-3,6.91275,R,ugm-3,10.13624,R,ugm-3
07-01-2020,03:00,1.13201,R,ugm-3,3.20879,R,ugm-3,4.94451,R,ugm-3
07-01-2020,04:00,0.92987,R,ugm-3,2.03538,R,ugm-3,3.46116,R,ugm-3
07-01-2020,05:00,1.13201,R,ugm-3,2.34350,R,ugm-3,4.07922,R,ugm-3
07-01-2020,06:00,2.83003,R,ugm-3,5.17887,R,ugm-3,9.51818,R,ugm-3
07-01-2020,07:00,6.54949,R,ugm-3,11.58982,R,ugm-3,21.63223,R,ugm-3
07-01-2020,08:00,9.82423,R,ugm-3,17.13750,R,ugm-3,32.20112,R,ugm-3
07-01-2020,09:00,9.54123,R,ugm-3,10.40190,R,ugm-3,25.03158,R,ugm-3
07-01-2020,10:00,9.25823,R,ugm-3,15.22408,R,ugm-3,29.41983,R,ugm-3
07-01-2020,11:00,10.75410,R,ugm-3,14.90825,R,ugm-3,31.39764,R,ugm-3
07-01-2020,12:00,13.62455,R,ugm-3,18.23274,R,ugm-3,39.12343,R,ugm-3
07-01-2020,13:00,12.89683,R,ugm-3,16.93811,R,ugm-3,36.71298,R,ugm-3
07-01-2020,14:00,9.82423,R,ugm-3,16.58125,R,ugm-3,31.64486,R,ugm-3
07-01-2020,15:00,13.30112,R,ugm-3,22.56066,R,ugm-3,42.95543,R,ugm-3
07-01-2020,16:00,18.59731,R,ugm-3,16.60316,R,ugm-3,45.11865,R,ugm-3
07-01-2020,17:00,16.53544,R,ugm-3,11.72984,R,ugm-3,37.08382,R,ugm-3
07-01-2020,18:00,7.72193,R,ugm-3,14.73661,R,ugm-3,26.57674,R,ugm-3
07-01-2020,19:00,11.84568,R,ugm-3,13.48174,R,ugm-3,31.64486,R,ugm-3
07-01-2020,20:00,16.37372,R,ugm-3,26.93494,R,ugm-3,52.04096,R,ugm-3
07-01-2020,21:00,10.14767,R,ugm-3,20.28816,R,ugm-3,35.84769,R,ugm-3
07-01-2020,22:00,9.29866,R,ugm-3,13.55512,R,ugm-3,27.81286,R,ugm-3
07-01-2020,23:00,12.08825,R,ugm-3,14.40773,R,ugm-3,32.94279,R,ugm-3
07-01-2020,24:00,8.20708,R,ugm-3,11.76770,R,ugm-3,24.35171,R,ugm-3
08-01-2020,01:00,4.26849,R,ugm-3,7.49579,R,ugm-3,14.04072,R,ugm-3
08-01-2020,02:00,5.18703,R,ugm-3,9.14331,R,ugm-3,17.09664,R,ugm-3
08-01-2020,03:00,2.63404,R,ugm-3,5.87230,R,ugm-3,9.91110,R,ugm-3
08-01-2020,04:00,2.02618,R,ugm-3,3.02572,R,ugm-3,6.13249,R,ugm-3
08-01-2020,05:00,1.90461,R,ugm-3,4.26518,R,ugm-3,7.18554,R,ugm-3
08-01-2020,06:00,11.50872,R,ugm-3,20.57321,R,ugm-3,38.21966,R,ugm-3
08-01-2020,07:00,30.06855,R,ugm-3,40.98929,R,ugm-3,87.09375,R,ugm-3
08-01-2020,08:00,66.53983,R,ugm-3,71.29397,R,ugm-3,173.32028,R,ugm-3
08-01-2020,09:00,73.02361,R,ugm-3,64.26369,R,ugm-3,176.23166,R,ugm-3
08-01-2020,10:00,36.75495,R,ugm-3,45.85137,R,ugm-3,102.20817,R,ugm-3
08-01-2020,11:00,39.63213,R,ugm-3,46.14753,R,ugm-3,106.91594,R,ugm-3
08-01-2020,12:00,64.47312,R,ugm-3,52.59652,R,ugm-3,151.45393,R,ugm-3
08-01-2020,13:00,54.34221,R,ugm-3,53.51150,R,ugm-3,136.83506,R,ugm-3
08-01-2020,14:00,64.51364,R,ugm-3,59.65798,R,ugm-3,158.57753,R,ugm-3
08-01-2020,15:00,80.19630,R,ugm-3,73.70736,R,ugm-3,196.67330,R,ugm-3
08-01-2020,16:00,97.41885,R,ugm-3,77.34283,R,ugm-3,226.71631,R,ugm-3
08-01-2020,17:00,82.66824,R,ugm-3,64.71378,R,ugm-3,191.46997,R,ugm-3
08-01-2020,18:00,72.05104,R,ugm-3,71.76354,R,ugm-3,182.24026,R,ugm-3
08-01-2020,19:00,78.17011,R,ugm-3,66.03581,R,ugm-3,185.89498,R,ugm-3
08-01-2020,20:00,32.13525,R,ugm-3,55.47452,R,ugm-3,104.74789,R,ugm-3
08-01-2020,21:00,28.48812,R,ugm-3,42.11174,R,ugm-3,85.79292,R,ugm-3
08-01-2020,22:00,13.89961,R,ugm-3,30.28720,R,ugm-3,51.59964,R,ugm-3
08-01-2020,23:00,29.46069,R,ugm-3,40.93021,R,ugm-3,86.10264,R,ugm-3
08-01-2020,24:00,23.01743,R,ugm-3,31.91671,R,ugm-3,67.20961,R,ugm-3
09-01-2020,01:00,4.87420,R,ugm-3,18.43535,R,ugm-3,25.90902,R,ugm-3
09-01-2020,02:00,4.22431,R,ugm-3,15.78968,R,ugm-3,22.26686,R,ugm-3
09-01-2020,03:00,5.15853,R,ugm-3,17.29579,R,ugm-3,25.20543,R,ugm-3
09-01-2020,04:00,6.45832,R,ugm-3,20.95230,R,ugm-3,30.85492,R,ugm-3
09-01-2020,05:00,6.13337,R,ugm-3,26.91379,R,ugm-3,36.31816,R,ugm-3
09-01-2020,06:00,50.20428,R,ugm-3,49.11038,R,ugm-3,126.08920,R,ugm-3
09-01-2020,07:00,126.16059,R,ugm-3,63.20479,R,ugm-3,256.64833,R,ugm-3
09-01-2020,08:00,156.66497,R,ugm-3,81.12184,R,ugm-3,321.33811,R,ugm-3
09-01-2020,09:00,196.30848,R,ugm-3,74.78217,R,ugm-3,375.78431,R,ugm-3
09-01-2020,10:00,164.05751,R,ugm-3,70.22135,R,ugm-3,321.77269,R,ugm-3
09-01-2020,11:00,125.63255,R,ugm-3,58.30286,R,ugm-3,250.93676,R,ugm-3
09-01-2020,12:00,164.05751,R,ugm-3,83.32072,R,ugm-3,334.87206,R,ugm-3
09-01-2020,13:00,124.94204,R,ugm-3,81.40086,R,ugm-3,272.97598,R,ugm-3
09-01-2020,14:00,118.28063,R,ugm-3,83.04752,R,ugm-3,264.40862,R,ugm-3
09-01-2020,15:00,141.63618,R,ugm-3,82.68518,R,ugm-3,299.85763,R,ugm-3
09-01-2020,16:00,158.00538,R,ugm-3,85.95772,R,ugm-3,328.22925,R,ugm-3
09-01-2020,17:00,129.04449,R,ugm-3,81.75333,R,ugm-3,279.61879,R,ugm-3
09-01-2020,18:00,203.49793,R,ugm-3,91.38514,R,ugm-3,403.41095,R,ugm-3
09-01-2020,19:00,82.86143,R,ugm-3,70.55562,R,ugm-3,197.60804,R,ugm-3
09-01-2020,20:00,111.98479,R,ugm-3,62.77733,R,ugm-3,234.48494,R,ugm-3
09-01-2020,21:00,52.92571,R,ugm-3,55.67782,R,ugm-3,136.82945,R,ugm-3
09-01-2020,22:00,37.12517,R,ugm-3,46.69093,R,ugm-3,103.61540,R,ugm-3
09-01-2020,23:00,34.24127,R,ugm-3,45.58753,R,ugm-3,98.09007,R,ugm-3
09-01-2020,24:00,27.29553,R,ugm-3,32.95664,R,ugm-3,74.80920,R,ugm-3
10-01-2020,01:00,12.81104,R,ugm-3,20.59248,R,ugm-3,40.23580,R,ugm-3
10-01-2020,02:00,9.60828,R,ugm-3,13.72293,R,ugm-3,28.45542,R,ugm-3
10-01-2020,03:00,7.04336,R,ugm-3,16.45283,R,ugm-3,27.25249,R,ugm-3
10-01-2020,04:00,3.17562,R,ugm-3,10.25032,R,ugm-3,15.11954,R,ugm-3
10-01-2020,05:00,3.41990,R,ugm-3,8.00916,R,ugm-3,13.25293,R,ugm-3
10-01-2020,06:00,20.19367,R,ugm-3,20.49299,R,ugm-3,51.45619,R,ugm-3
10-01-2020,07:00,58.30109,R,ugm-3,48.92198,R,ugm-3,138.31574,R,ugm-3
10-01-2020,08:00,118.71926,R,ugm-3,69.83413,R,ugm-3,251.86779,R,ugm-3
10-01-2020,09:00,142.94353,R,ugm-3,86.69800,R,ugm-3,305.87502,R,ugm-3
10-01-2020,10:00,107.31961,R,ugm-3,71.13608,R,ugm-3,235.69051,R,ugm-3
10-01-2020,11:00,127.43185,R,ugm-3,70.59902,R,ugm-3,265.99180,R,ugm-3
10-01-2020,12:00,116.84646,R,ugm-3,63.55934,R,ugm-3,242.72141,R,ugm-3
10-01-2020,13:00,121.48775,R,ugm-3,77.28659,R,ugm-3,263.56521,R,ugm-3
10-01-2020,14:00,40.26521,R,ugm-3,42.97765,R,ugm-3,104.71677,R,ugm-3
10-01-2020,15:00,19.94940,R,ugm-3,28.39620,R,ugm-3,58.98485,R,ugm-3
10-01-2020,16:00,17.87303,R,ugm-3,35.93534,R,ugm-3,63.34027,R,ugm-3
10-01-2020,17:00,23.89856,R,ugm-3,28.37627,R,ugm-3,65.02022,R,ugm-3
10-01-2020,18:00,14.08672,R,ugm-3,25.81254,R,ugm-3,47.41187,R,ugm-3
10-01-2020,19:00,12.17320,R,ugm-3,22.02676,R,ugm-3,40.69208,R,ugm-3
10-01-2020,20:00,10.34112,R,ugm-3,20.23162,R,ugm-3,36.08778,R,ugm-3
10-01-2020,21:00,5.98482,R,ugm-3,10.04948,R,ugm-3,19.22607,R,ugm-3
10-01-2020,22:00,4.80414,R,ugm-3,9.30880,R,ugm-3,16.67504,R,ugm-3
10-01-2020,23:00,3.25705,R,ugm-3,5.70783,R,ugm-3,10.70189,R,ugm-3
10-01-2020,24:00,3.29776,R,ugm-3,4.15211,R,ugm-3,9.20861,R,ugm-3
11-01-2020,01:00,2.99257,R,ugm-3,6.80224,R,ugm-3,11.39078,R,ugm-3
11-01-2020,02:00,3.15580,R,ugm-3,7.63283,R,ugm-3,12.47166,R,ugm-3
11-01-2020,03:00,3.18301,R,ugm-3,6.59339,R,ugm-3,11.47393,R,ugm-3
11-01-2020,04:00,1.50989,R,ugm-3,3.35948,R,ugm-3,5.67460,R,ugm-3
11-01-2020,05:00,0.65292,R,ugm-3,1.61791,R,ugm-3,2.61905,R,ugm-3
11-01-2020,06:00,1.38746,R,ugm-3,1.86352,R,ugm-3,3.99093,R,ugm-3
11-01-2020,07:00,5.91713,R,ugm-3,6.14262,R,ugm-3,15.21542,R,ugm-3
11-01-2020,08:00,15.13968,R,ugm-3,10.58434,R,ugm-3,33.79819,R,ugm-3
11-01-2020,09:00,7.18217,R,ugm-3,9.87753,R,ugm-3,20.89003,R,ugm-3
11-01-2020,10:00,14.56837,R,ugm-3,21.68709,R,ugm-3,44.02495,R,ugm-3
11-01-2020,11:00,29.74885,R,ugm-3,35.26442,R,ugm-3,80.87869,R,ugm-3
11-01-2020,12:00,75.12708,R,ugm-3,67.51653,R,ugm-3,182.70977,R,ugm-3
11-01-2020,13:00,72.84184,R,ugm-3,67.40372,R,ugm-3,179.09299,R,ugm-3
11-01-2020,14:00,92.42957,R,ugm-3,61.81408,R,ugm-3,203.53744,R,ugm-3
11-01-2020,15:00,50.56081,R,ugm-3,72.44618,R,ugm-3,149.97167,R,ugm-3
11-01-2020,16:00,37.74717,R,ugm-3,52.18418,R,ugm-3,110.06237,R,ugm-3
11-01-2020,17:00,49.94869,R,ugm-3,62.09790,R,ugm-3,138.68482,R,ugm-3
11-01-2020,18:00,82.55409,R,ugm-3,65.29527,R,ugm-3,191.87644,R,ugm-3
11-01-2020,19:00,104.95755,R,ugm-3,69.41884,R,ugm-3,230.35150,R,ugm-3
11-01-2020,20:00,69.33238,R,ugm-3,70.16578,R,ugm-3,176.47394,R,ugm-3
11-01-2020,21:00,67.33280,R,ugm-3,63.87802,R,ugm-3,167.12020,R,ugm-3
11-01-2020,22:00,37.42071,R,ugm-3,54.74257,R,ugm-3,112.12019,R,ugm-3
11-01-2020,23:00,37.05344,R,ugm-3,47.69800,R,ugm-3,104.51248,R,ugm-3
11-01-2020,24:00,57.78378,R,ugm-3,58.62735,R,ugm-3,147.22791,R,ugm-3
12-01-2020,01:00,48.86480,R,ugm-3,53.73399,R,ugm-3,128.65897,R,ugm-3
12-01-2020,02:00,28.41357,R,ugm-3,38.09491,R,ugm-3,81.66178,R,ugm-3
12-01-2020,03:00,28.99984,R,ugm-3,43.90391,R,ugm-3,88.36972,R,ugm-3
12-01-2020,04:00,18.69242,R,ugm-3,37.95970,R,ugm-3,66.62102,R,ugm-3
12-01-2020,05:00,10.38922,R,ugm-3,30.31731,R,ugm-3,46.24724,R,ugm-3
12-01-2020,06:00,1.34978,R,ugm-3,11.17957,R,ugm-3,13.24921,R,ugm-3
12-01-2020,07:00,11.12547,R,ugm-3,26.81356,R,ugm-3,43.87238,R,ugm-3
12-01-2020,08:00,4.17205,R,ugm-3,18.22647,R,ugm-3,24.62353,R,ugm-3
12-01-2020,09:00,4.13115,R,ugm-3,15.60185,R,ugm-3,21.93619,R,ugm-3
12-01-2020,10:00,32.64016,R,ugm-3,35.88481,R,ugm-3,85.93236,R,ugm-3
12-01-2020,11:00,65.48484,R,ugm-3,59.51926,R,ugm-3,159.92794,R,ugm-3
12-01-2020,12:00,38.16199,R,ugm-3,51.10421,R,ugm-3,109.61845,R,ugm-3
12-01-2020,13:00,42.21134,R,ugm-3,49.20754,R,ugm-3,113.93069,R,ugm-3
12-01-2020,14:00,55.87276,R,ugm-3,53.32132,R,ugm-3,138.99169,R,ugm-3
12-01-2020,15:00,32.35384,R,ugm-3,46.57321,R,ugm-3,96.18175,R,ugm-3
12-01-2020,16:00,26.21848,R,ugm-3,36.66930,R,ugm-3,76.87040,R,ugm-3
12-01-2020,17:00,16.85181,R,ugm-3,31.15751,R,ugm-3,56.99659,R,ugm-3
12-01-2020,18:00,9.65298,R,ugm-3,21.63429,R,ugm-3,36.43532,R,ugm-3
12-01-2020,19:00,13.57962,R,ugm-3,23.86304,R,ugm-3,44.68483,R,ugm-3
12-01-2020,20:00,18.77423,R,ugm-3,29.14729,R,ugm-3,57.93404,R,ugm-3
12-01-2020,21:00,18.85603,R,ugm-3,35.45897,R,ugm-3,64.37115,R,ugm-3
12-01-2020,22:00,16.85181,R,ugm-3,24.78289,R,ugm-3,50.62197,R,ugm-3
12-01-2020,23:00,7.36244,R,ugm-3,11.52222,R,ugm-3,22.81114,R,ugm-3
12-01-2020,24:00,2.69956,R,ugm-3,5.17267,R,ugm-3,9.31194,R,ugm-3
13-01-2020,01:00,2.02253,R,ugm-3,5.50060,R,ugm-3,8.60177,R,ugm-3
13-01-2020,02:00,1.85854,R,ugm-3,5.66854,R,ugm-3,8.51826,R,ugm-3
13-01-2020,03:00,1.63989,R,ugm-3,4.75112,R,ugm-3,7.26557,R,ugm-3
13-01-2020,04:00,0.90194,R,ugm-3,3.81569,R,ugm-3,5.19864,R,ugm-3
13-01-2020,05:00,0.94294,R,ugm-3,3.94073,R,ugm-3,5.38655,R,ugm-3
13-01-2020,06:00,2.29584,R,ugm-3,5.93753,R,ugm-3,9.45777,R,ugm-3
13-01-2020,07:00,6.35456,R,ugm-3,12.30373,R,ugm-3,22.04725,R,ugm-3
13-01-2020,08:00,17.66978,R,ugm-3,21.69880,R,ugm-3,48.79208,R,ugm-3
13-01-2020,09:00,14.55399,R,ugm-3,24.97304,R,ugm-3,47.28885,R,ugm-3
13-01-2020,10:00,10.12630,R,ugm-3,15.66508,R,ugm-3,31.19185,R,ugm-3
13-01-2020,11:00,9.47035,R,ugm-3,14.04022,R,ugm-3,28.56122,R,ugm-3
13-01-2020,12:00,9.06037,R,ugm-3,11.72503,R,ugm-3,25.61741,R,ugm-3
13-01-2020,13:00,9.01938,R,ugm-3,13.91745,R,ugm-3,27.74697,R,ugm-3
13-01-2020,14:00,8.60940,R,ugm-3,14.10763,R,ugm-3,27.30853,R,ugm-3
13-01-2020,15:00,8.40442,R,ugm-3,15.29881,R,ugm-3,28.18541,R,ugm-3
13-01-2020,16:00,6.60054,R,ugm-3,15.55935,R,ugm-3,25.68004,R,ugm-3
13-01-2020,17:00,6.76453,R,ugm-3,14.30575,R,ugm-3,24.67789,R,ugm-3
13-01-2020,18:00,7.25650,R,ugm-3,11.17132,R,ugm-3,22.29779,R,ugm-3
13-01-2020,19:00,4.38670,R,ugm-3,9.80927,R,ugm-3,16.53544,R,ugm-3
13-01-2020,20:00,4.14071,R,ugm-3,7.93160,R,ugm-3,14.28061,R,ugm-3
13-01-2020,21:00,3.68974,R,ugm-3,6.80669,R,ugm-3,12.46421,R,ugm-3
13-01-2020,22:00,3.44376,R,ugm-3,8.12337,R,ugm-3,13.40373,R,ugm-3
13-01-2020,23:00,3.27977,R,ugm-3,6.43315,R,ugm-3,11.46207,R,ugm-3
13-01-2020,24:00,4.18171,R,ugm-3,10.74992,R,ugm-3,17.16178,R,ugm-3
14-01-2020,01:00,1.04099,R,ugm-3,2.17017,R,ugm-3,3.76633,R,ugm-3
14-01-2020,02:00,0.93142,R,ugm-3,1.91970,R,ugm-3,3.34785,R,ugm-3
14-01-2020,03:00,1.15057,R,ugm-3,3.00650,R,ugm-3,4.77069,R,ugm-3
14-01-2020,04:00,0.82184,R,ugm-3,1.62739,R,ugm-3,2.88752,R,ugm-3
14-01-2020,05:00,1.10948,R,ugm-3,2.00238,R,ugm-3,3.70356,R,ugm-3
14-01-2020,06:00,4.43792,R,ugm-3,7.94676,R,ugm-3,14.75147,R,ugm-3
14-01-2020,07:00,8.38274,R,ugm-3,14.38979,R,ugm-3,27.24314,R,ugm-3
14-01-2020,08:00,11.13590,R,ugm-3,18.14042,R,ugm-3,35.21522,R,ugm-3
14-01-2020,09:00,18.20370,R,ugm-3,30.40345,R,ugm-3,58.31540,R,ugm-3
14-01-2020,10:00,36.85940,R,ugm-3,37.64137,R,ugm-3,94.15833,R,ugm-3
14-01-2020,11:00,12.73848,R,ugm-3,26.35443,R,ugm-3,45.88649,R,ugm-3
14-01-2020,12:00,16.35456,R,ugm-3,20.62153,R,ugm-3,45.69818,R,ugm-3
14-01-2020,13:00,14.79307,R,ugm-3,16.55025,R,ugm-3,39.23264,R,ugm-3
14-01-2020,14:00,14.42325,R,ugm-3,23.01790,R,ugm-3,45.13323,R,ugm-3
14-01-2020,15:00,16.10801,R,ugm-3,27.15125,R,ugm-3,51.84986,R,ugm-3
14-01-2020,16:00,13.93014,R,ugm-3,20.19596,R,ugm-3,41.55521,R,ugm-3
14-01-2020,17:00,22.97035,R,ugm-3,34.51922,R,ugm-3,69.73994,R,ugm-3
14-01-2020,18:00,23.42236,R,ugm-3,31.62912,R,ugm-3,67.54291,R,ugm-3
14-01-2020,19:00,16.35456,R,ugm-3,23.88569,R,ugm-3,48.96233,R,ugm-3
14-01-2020,20:00,34.55826,R,ugm-3,31.44005,R,ugm-3,84.42864,R,ugm-3
14-01-2020,21:00,24.20311,R,ugm-3,38.46684,R,ugm-3,75.57776,R,ugm-3
14-01-2020,22:00,9.41004,R,ugm-3,23.10927,R,ugm-3,37.53779,R,ugm-3
14-01-2020,23:00,11.83446,R,ugm-3,17.82257,R,ugm-3,35.96848,R,ugm-3
14-01-2020,24:00,7.60200,R,ugm-3,19.60434,R,ugm-3,31.26057,R,ugm-3
15-01-2020,01:00,3.07526,R,ugm-3,7.86670,R,ugm-3,12.58204,R,ugm-3
15-01-2020,02:00,2.91052,R,ugm-3,6.19006,R,ugm-3,10.65279,R,ugm-3
15-01-2020,03:00,1.44153,R,ugm-3,4.33235,R,ugm-3,6.54266,R,ugm-3
15-01-2020,04:00,1.23560,R,ugm-3,3.20117,R,ugm-3,5.09573,R,ugm-3
15-01-2020,05:00,1.27678,R,ugm-3,4.77368,R,ugm-3,6.73139,R,ugm-3
15-01-2020,06:00,3.83035,R,ugm-3,7.96712,R,ugm-3,13.84024,R,ugm-3
15-01-2020,07:00,10.46139,R,ugm-3,17.11311,R,ugm-3,33.15368,R,ugm-3
15-01-2020,08:00,17.05124,R,ugm-3,28.83865,R,ugm-3,54.98352,R,ugm-3
15-01-2020,09:00,32.20790,R,ugm-3,47.05659,R,ugm-3,96.44134,R,ugm-3
15-01-2020,10:00,26.64771,R,ugm-3,33.75225,R,ugm-3,74.61150,R,ugm-3
15-01-2020,11:00,14.86835,R,ugm-3,25.64304,R,ugm-3,48.44086,R,ugm-3
15-01-2020,12:00,17.95734,R,ugm-3,35.12435,R,ugm-3,62.65856,R,ugm-3
15-01-2020,13:00,12.72665,R,ugm-3,15.58997,R,ugm-3,35.10389,R,ugm-3
15-01-2020,14:00,15.69208,R,ugm-3,20.47957,R,ugm-3,44.54042,R,ugm-3
15-01-2020,15:00,18.03972,R,ugm-3,18.20102,R,ugm-3,45.86154,R,ugm-3